Weather History for Madison, SD

Change the Weather History Date:

Thursday, November 21, 2013

  Actual Average Record
Temperature  
Mean Temperature 21 °F -  
Max Temperature 28 °F 34 °F 66 °F (2012)
Min Temperature 12 °F 19 °F 12 °F (2013)
Degree Days  
Heating Degree Days 44    
Moisture  
Dew Point 16 °F    
Average Humidity 90    
Maximum Humidity 100    
Minimum Humidity 74    
Precipitation  
Precipitation 2.17 in - - ()
Sea Level Pressure  
Sea Level Pressure 30.37 in    
Wind  
Wind Speed 20 mph (North)    
Max Wind Speed 25 mph    
Max Gust Speed 34 mph    
Visibility 9 miles    
Events Rain , Snow    
Averages and records for this station are not official NWS values.
T = Trace of Precipitation, MM = Missing Value Source: NWS Daily Summary

Daily Weather History Graph

Daily Weather History Graph

Search for Another Location

Airport:

Trip Planner

Search our weather history database for the weather conditions in past years. The results will help you decide how hot, cold, wet, or windy it might be!

Date:

Astronomy

Nov. 21, 2013 Rise Set
Actual Time 7:31 AM CST 4:56 PM CST
Civil Twilight 6:59 AM CST 5:28 PM CST
Nautical Twilight 6:24 AM CST 6:03 PM CST
Astronomical Twilight 5:49 AM CST 6:38 PM CST
Moon 8:35 PM CST (11/21) 10:37 AM CST (11/21)
Length of Visible Light 10h 28m
Length of Day
9h 25m
Waning Gibbous, 85% of the Moon is Illuminated
Nov 21
Waning Gibbous
Nov 25
Last Quarter
Dec 2
New
Dec 9
First Quarter
Dec 17
Full

Hourly Weather History & Observations

Time (CST) Temp. Windchill Dew Point Humidity Pressure Visibility Wind Dir Wind Speed Gust Speed Precip Events Conditions
12:10 AM 28.4 °F 15.8 °F 28.4 °F 100% 30.06 in 10.0 mi North 18.4 mph 27.6 mph N/A   Overcast
12:30 AM 26.6 °F 12.7 °F 26.6 °F 100% 30.07 in 10.0 mi North 20.7 mph 27.6 mph N/A   Overcast
12:50 AM 26.6 °F 13.4 °F 26.6 °F 100% 30.09 in 10.0 mi North 18.4 mph 23.0 mph N/A   Overcast
1:10 AM 26.6 °F 13.1 °F 26.6 °F 100% 30.10 in 10.0 mi North 19.6 mph 25.3 mph N/A   Overcast
1:30 AM 24.8 °F 11.9 °F 24.8 °F 100% 30.12 in 10.0 mi North 16.1 mph 26.5 mph N/A   Overcast
1:50 AM 24.8 °F 11.1 °F 24.8 °F 100% 30.13 in 10.0 mi North 18.4 mph 25.3 mph N/A   Overcast
2:10 AM 24.8 °F 10.3 °F 24.8 °F 100% 30.14 in 10.0 mi NNW 20.7 mph 28.8 mph N/A   Overcast
2:30 AM 24.8 °F 9.6 °F 24.8 °F 100% 30.15 in 10.0 mi NNW 23.0 mph 28.8 mph N/A   Overcast
2:50 AM 23.0 °F 7.2 °F 23.0 °F 100% 30.16 in 10.0 mi NNW 23.0 mph 32.2 mph N/A   Overcast
3:10 AM 23.0 °F 7.2 °F 23.0 °F 100% 30.17 in 10.0 mi North 23.0 mph 32.2 mph N/A   Overcast
3:30 AM 23.0 °F 6.6 °F 19.4 °F 86% 30.18 in 10.0 mi North 25.3 mph 33.4 mph N/A   Overcast
3:50 AM 23.0 °F 6.9 °F 19.4 °F 86% 30.18 in 10.0 mi North 24.2 mph 34.5 mph N/A   Overcast
4:10 AM 21.2 °F 5.2 °F 19.4 °F 93% 30.19 in 10.0 mi North 21.9 mph 34.5 mph N/A   Overcast
4:30 AM 19.4 °F 2.5 °F 17.6 °F 93% 30.21 in 10.0 mi NNW 23.0 mph 31.1 mph N/A   Overcast
4:50 AM 19.4 °F 2.5 °F 15.8 °F 86% 30.22 in 10.0 mi North 23.0 mph 34.5 mph N/A   Overcast
5:10 AM 19.4 °F 4.1 °F 17.6 °F 93% 30.23 in 10.0 mi North 18.4 mph 28.8 mph N/A   Overcast
5:30 AM 19.4 °F 2.5 °F 17.6 °F 93% 30.24 in 10.0 mi North 23.0 mph 27.6 mph N/A   Overcast
5:50 AM 19.4 °F 2.5 °F 17.6 °F 93% 30.25 in 10.0 mi North 23.0 mph 26.5 mph N/A   Overcast
6:10 AM 19.4 °F 2.1 °F 15.8 °F 86% 30.26 in 10.0 mi North 24.2 mph 29.9 mph N/A   Mostly Cloudy
6:30 AM 17.6 °F 0.1 °F 15.8 °F 93% 30.28 in 10.0 mi North 23.0 mph 29.9 mph N/A   Overcast
6:50 AM 17.6 °F 0.9 °F 15.8 °F 93% 30.29 in 10.0 mi North 20.7 mph 26.5 mph N/A   Overcast
7:10 AM 17.6 °F 0.9 °F 15.8 °F 93% 30.30 in 10.0 mi NNW 20.7 mph 28.8 mph N/A   Overcast
7:30 AM 17.6 °F 1.3 °F 15.8 °F 93% 30.30 in 10.0 mi North 19.6 mph 27.6 mph N/A Snow Light Snow
7:50 AM 17.6 °F 1.3 °F 15.8 °F 93% 30.30 in 10.0 mi North 19.6 mph 29.9 mph N/A   Overcast
8:10 AM 17.6 °F 0.1 °F 15.8 °F 93% 30.31 in 10.0 mi North 23.0 mph 28.8 mph N/A   Overcast
8:30 AM 17.6 °F 0.9 °F 15.8 °F 93% 30.31 in 10.0 mi North 20.7 mph 31.1 mph N/A   Mostly Cloudy
8:50 AM 17.6 °F 1.7 °F 15.8 °F 93% 30.32 in 10.0 mi North 18.4 mph 27.6 mph N/A   Mostly Cloudy
9:10 AM 17.6 °F -0.3 °F 15.8 °F 93% 30.35 in 10.0 mi North 24.2 mph 34.5 mph N/A   Overcast
9:30 AM 19.4 °F 1.8 °F 14.0 °F 80% 30.36 in 10.0 mi North 25.3 mph 32.2 mph N/A   Mostly Cloudy
9:50 AM 19.4 °F 2.1 °F 15.8 °F 86% 30.36 in 10.0 mi North 24.2 mph - N/A   Mostly Cloudy
10:10 AM 19.4 °F 2.1 °F 14.0 °F 80% 30.37 in 10.0 mi North 24.2 mph 29.9 mph N/A   Mostly Cloudy
10:30 AM 19.4 °F 2.1 °F 14.0 °F 80% 30.38 in 10.0 mi North 24.2 mph 29.9 mph N/A   Mostly Cloudy
10:50 AM 19.4 °F 2.1 °F 14.0 °F 80% 30.37 in 10.0 mi North 24.2 mph 31.1 mph N/A   Mostly Cloudy
11:10 AM 21.2 °F 4.9 °F 15.8 °F 80% 30.38 in 10.0 mi North 23.0 mph 28.8 mph N/A   Scattered Clouds
11:30 AM 21.2 °F 5.6 °F 15.8 °F 80% 30.37 in 10.0 mi North 20.7 mph 28.8 mph N/A Snow Light Snow
11:50 AM 21.2 °F 4.9 °F 14.0 °F 74% 30.38 in 10.0 mi North 23.0 mph 29.9 mph N/A Rain Light Freezing Rain
12:10 PM 21.2 °F 5.2 °F 15.8 °F 80% 30.38 in 10.0 mi North 21.9 mph 28.8 mph N/A Snow Light Snow
12:30 PM 19.4 °F 2.8 °F 15.8 °F 86% 30.38 in 10.0 mi North 21.9 mph 31.1 mph N/A Snow Light Snow
12:50 PM 19.4 °F 2.1 °F 15.8 °F 86% 30.39 in 10.0 mi North 24.2 mph 27.6 mph 0.01 in Snow Light Snow
1:10 PM 19.4 °F 2.5 °F 15.8 °F 86% 30.39 in 10.0 mi North 23.0 mph 28.8 mph N/A Snow Light Snow
1:30 PM 19.4 °F 2.5 °F 15.8 °F 86% 30.40 in 2.5 mi North 23.0 mph 32.2 mph 0.03 in Snow Light Snow
1:50 PM 17.6 °F 0.9 °F 17.6 °F 100% 30.40 in 0.8 mi North 20.7 mph 25.3 mph 0.25 in Snow Light Snow
2:10 PM 17.6 °F 0.1 °F 17.6 °F 100% 30.41 in 1.0 mi North 23.0 mph 26.5 mph 0.10 in Snow Light Snow
2:30 PM 17.6 °F 2.2 °F 17.6 °F 100% 30.41 in 0.8 mi North 17.3 mph - 0.58 in Snow Light Snow
2:50 PM 17.6 °F 2.2 °F 17.6 °F 100% 30.41 in 1.0 mi North 17.3 mph 26.5 mph 0.88 in Snow Light Snow
3:10 PM 17.6 °F 1.7 °F 17.6 °F 100% 30.42 in 0.8 mi North 18.4 mph 25.3 mph 0.17 in Snow Light Snow
3:30 PM 17.6 °F 2.2 °F 17.6 °F 100% 30.43 in 1.0 mi North 17.3 mph 27.6 mph 0.61 in Snow Light Snow
3:50 PM 17.6 °F 2.2 °F 17.6 °F 100% 30.44 in 1.5 mi North 17.3 mph - 0.83 in Snow Light Snow
4:10 PM 17.6 °F 1.3 °F 15.8 °F 93% 30.46 in 5.0 mi North 19.6 mph - 0.01 in Snow Light Snow
4:30 PM 17.6 °F 1.7 °F 17.6 °F 100% 30.47 in 1.5 mi North 18.4 mph 24.2 mph 0.06 in Snow Light Snow
4:50 PM 17.6 °F 2.2 °F 15.8 °F 93% 30.48 in 3.0 mi North 17.3 mph - 0.09 in Snow Light Snow
5:10 PM 17.6 °F 2.7 °F 17.6 °F 100% 30.48 in 1.5 mi North 16.1 mph 25.3 mph 0.02 in Snow Light Snow
5:30 PM 17.6 °F 2.2 °F 15.8 °F 93% 30.49 in 7.0 mi North 17.3 mph 24.2 mph 0.10 in Snow Light Snow
5:50 PM 17.6 °F 0.5 °F 15.8 °F 93% 30.49 in 10.0 mi North 21.9 mph 26.5 mph 0.11 in   Overcast
6:10 PM 17.6 °F 1.7 °F 14.0 °F 86% 30.50 in 10.0 mi NNW 18.4 mph 25.3 mph N/A   Overcast
6:30 PM 17.6 °F 2.7 °F 14.0 °F 86% 30.51 in 10.0 mi NNW 16.1 mph - N/A   Overcast
6:50 PM 15.8 °F -1.1 °F 14.0 °F 93% 30.51 in 10.0 mi NNW 19.6 mph 26.5 mph N/A   Overcast
7:10 PM 15.8 °F -1.1 °F 14.0 °F 93% 30.52 in 10.0 mi NNW 19.6 mph 24.2 mph N/A Snow Light Snow
7:30 PM 15.8 °F 0.3 °F 12.2 °F 86% 30.53 in 10.0 mi NNW 16.1 mph 23.0 mph N/A   Overcast
7:50 PM 15.8 °F -0.2 °F 12.2 °F 86% 30.54 in 10.0 mi NNW 17.3 mph 23.0 mph N/A   Overcast
8:10 PM 15.8 °F 1.4 °F 12.2 °F 86% 30.54 in 10.0 mi NNW 13.8 mph - N/A   Overcast
8:30 PM 15.8 °F 1.4 °F 12.2 °F 86% 30.55 in 10.0 mi NNW 13.8 mph 19.6 mph N/A   Overcast
8:50 PM 15.8 °F -0.2 °F 12.2 °F 86% 30.55 in 10.0 mi NNW 17.3 mph - N/A   Overcast
9:10 PM 14.0 °F -1.4 °F 12.2 °F 93% 30.57 in 10.0 mi NNW 15.0 mph 21.9 mph N/A   Overcast
9:30 PM 15.8 °F 0.3 °F 10.4 °F 79% 30.57 in 10.0 mi NNW 16.1 mph 20.7 mph N/A   Overcast
9:50 PM 15.8 °F 0.3 °F 10.4 °F 79% 30.57 in 10.0 mi NNW 16.1 mph 21.9 mph N/A   Overcast
10:10 PM 14.0 °F -1.4 °F 10.4 °F 86% 30.57 in 10.0 mi NNW 15.0 mph - N/A   Overcast
10:30 PM 14.0 °F -0.2 °F 10.4 °F 86% 30.57 in 10.0 mi NNW 12.7 mph 16.1 mph N/A   Overcast
10:50 PM 14.0 °F -1.4 °F 8.6 °F 79% 30.57 in 10.0 mi NNW 15.0 mph - N/A   Overcast
11:10 PM 14.0 °F 0.5 °F 8.6 °F 79% 30.58 in 10.0 mi NNW 11.5 mph - N/A   Overcast
11:30 PM 14.0 °F 0.5 °F 8.6 °F 79% 30.58 in 10.0 mi NNW 11.5 mph - N/A   Mostly Cloudy
11:50 PM 12.2 °F 1.7 °F 8.6 °F 85% 30.59 in 10.0 mi NNW 6.9 mph - N/A   Partly Cloudy